Time,TemperatureF,DewpointF,PressureIn,WindDirection,WindDirectionDegrees,WindSpeedMPH,WindSpeedGustMPH,Humidity,HourlyPrecipIn,Conditions,Clouds,dailyrainin,SoftwareType,DateUTC
2013-05-22 15:24:00,77.2,71.2,29.90,SE,135,5.1,-999.0,82,-99.99,,,0.00,Acu-Link.com,2013-05-22 19:24:00,
2013-05-22 15:40:00,74.8,70.4,29.90,NNE,22,1.6,-999.0,86,-99.99,,,0.00,Acu-Link.com,2013-05-22 19:40:00,
2013-05-22 15:55:00,77.4,71.1,29.89,ESE,112,2.7,-999.0,81,-99.99,,,0.00,Acu-Link.com,2013-05-22 19:55:00,
2013-05-22 16:10:00,74.7,69.5,29.90,NNE,22,4.3,-999.0,84,-99.99,,,0.00,Acu-Link.com,2013-05-22 20:10:00,
2013-05-22 16:25:00,71.8,67.0,29.91,NNE,22,3.8,-999.0,85,-99.99,,,0.00,Acu-Link.com,2013-05-22 20:25:00,
2013-05-22 16:40:00,71.6,66.8,29.91,West,270,1.6,-999.0,85,-99.99,,,0.00,Acu-Link.com,2013-05-22 20:40:00,
2013-05-22 16:56:00,71.6,66.2,29.91,WSW,247,4.3,-999.0,83,-99.99,,,0.00,Acu-Link.com,2013-05-22 20:56:00,
2013-05-22 17:11:00,71.4,66.3,29.92,South,180,3.1,-999.0,84,-99.99,,,0.00,Acu-Link.com,2013-05-22 21:11:00,
2013-05-22 17:26:00,71.6,66.5,29.92,SE,135,1.6,-999.0,84,-99.99,,,0.00,Acu-Link.com,2013-05-22 21:26:00,
2013-05-22 17:41:00,73.2,66.7,29.92,SE,135,3.1,-999.0,80,-99.99,,,0.00,Acu-Link.com,2013-05-22 21:41:00,
2013-05-22 17:56:00,73.9,66.6,29.92,SSE,157,4.3,-999.0,78,-99.99,,,0.00,Acu-Link.com,2013-05-22 21:56:00,
2013-05-22 18:11:00,75.0,66.9,29.91,SE,135,3.8,-999.0,76,-99.99,,,0.00,Acu-Link.com,2013-05-22 22:11:00,
2013-05-22 18:26:00,74.7,67.0,29.91,South,180,0.0,-999.0,77,-99.99,,,0.00,Acu-Link.com,2013-05-22 22:26:00,
2013-05-22 18:42:00,73.9,65.5,29.92,SE,135,0.0,-999.0,75,-99.99,,,0.00,Acu-Link.com,2013-05-22 22:42:00,
2013-05-22 18:57:00,72.3,65.8,29.91,South,180,1.1,-999.0,80,-99.99,,,0.00,Acu-Link.com,2013-05-22 22:57:00,
2013-05-22 19:12:00,71.6,65.5,29.91,SSW,202,2.7,-999.0,81,-99.99,,,0.00,Acu-Link.com,2013-05-22 23:12:00,
2013-05-22 19:27:00,70.5,65.8,29.92,West,270,3.1,-999.0,85,-99.99,,,0.00,Acu-Link.com,2013-05-22 23:27:00,
2013-05-22 19:42:00,69.4,65.7,29.92,South,180,6.3,-999.0,88,-99.99,,,0.00,Acu-Link.com,2013-05-22 23:42:00,
2013-05-22 19:57:00,68.5,65.8,29.92,West,270,1.1,-999.0,91,-99.99,,,0.00,Acu-Link.com,2013-05-22 23:57:00,
2013-05-22 20:13:00,67.6,65.8,29.92,SSW,202,2.2,-999.0,94,-99.99,,,0.00,Acu-Link.com,2013-05-23 00:13:00,
2013-05-22 20:28:00,66.6,65.7,29.93,SE,135,2.2,-999.0,97,-99.99,,,0.00,Acu-Link.com,2013-05-23 00:28:00,
2013-05-22 20:43:00,65.5,64.9,29.93,SW,225,1.6,-999.0,98,-99.99,,,0.00,Acu-Link.com,2013-05-23 00:43:00,
2013-05-22 20:58:00,65.3,64.7,29.92,South,180,2.7,-999.0,98,-99.99,,,0.00,Acu-Link.com,2013-05-23 00:58:00,
2013-05-22 21:13:00,65.3,64.1,29.92,SSW,202,1.6,-999.0,96,-99.99,,,0.00,Acu-Link.com,2013-05-23 01:13:00,
2013-05-22 21:28:00,65.3,63.5,29.93,SSE,157,1.1,-999.0,94,-99.99,,,0.00,Acu-Link.com,2013-05-23 01:28:00,
2013-05-22 21:44:00,65.3,63.5,29.93,SE,135,1.1,-999.0,94,-99.99,,,0.00,Acu-Link.com,2013-05-23 01:44:00,
2013-05-22 21:59:00,64.9,62.6,29.93,SSE,157,1.6,-999.0,92,-99.99,,,0.00,Acu-Link.com,2013-05-23 01:59:00,
2013-05-22 22:14:00,65.1,62.1,29.91,SSE,157,1.1,-999.0,90,-99.99,,,0.00,Acu-Link.com,2013-05-23 02:14:00,
2013-05-22 22:30:00,65.8,61.2,29.91,South,180,2.7,-999.0,85,-99.99,,,0.00,Acu-Link.com,2013-05-23 02:30:00,
2013-05-22 22:45:00,65.7,60.4,29.90,SSE,157,1.1,-999.0,83,-99.99,,,0.00,Acu-Link.com,2013-05-23 02:45:00,
2013-05-22 23:00:00,65.3,60.3,29.92,ESE,112,3.8,-999.0,84,-99.99,,,0.00,Acu-Link.com,2013-05-23 03:00:00,
2013-05-22 23:15:00,65.1,60.5,29.92,NNW,337,1.6,-999.0,85,-99.99,,,0.00,Acu-Link.com,2013-05-23 03:15:00,
2013-05-22 23:31:00,64.9,61.0,29.92,SSE,157,0.0,-999.0,87,-99.99,,,0.00,Acu-Link.com,2013-05-23 03:31:00,
2013-05-22 23:46:00,64.8,61.1,29.92,South,180,1.6,-999.0,88,-99.99,,,0.00,Acu-Link.com,2013-05-23 03:46:00,